Tracking 20719 objects as of 26-May-2020
HD Live streaming from Space Station
objects crossing your sky now

INSAT 3B

Track INSAT 3B now!
INSAT 3B is classified as:


NORAD ID: 26108
Int'l Code: 2000-016B
Perigee: 35,956.5 km
Apogee: 35,977.9 km
Inclination: 6.3 °
Period: 1,445.0 minutes
Semi major axis: 42338 km
RCS: 5.0119 m2 (large)
Launch date: March 21, 2000
Source: India (IND)
Launch site: FRENCH GUIANA (FRGUI)

Voice, data and fax transmissions.
aabbcc
Your satellite tracking list
Your tracking list is empty




NASA's NSSDC Master Catalog

Two Line Element Set (TLE):
1 26108U 00016B   20145.44505010 +.00000134 +00000-0 +00000-0 0  9993
2 26108 006.3390 061.2158 0002519 213.8629 174.0389 00.99656215073680
Source of the keplerian elements: AFSPC